Location: Shenandoah County Park
(38.9356°N, 78.4524°W)
Time: 05:36:47
(UTC-04:00)

Explorer 11/Cluster Stage 4 - Pass Details

Date: 29 February 2024
Orbit: 465 x 1220 km, 28.8° (Epoch: 12 April)

Event Time Altitude Azimuth Distance (km) Brightness Sun altitude
Rises 22:01:50 0° 218° (SW) 3,794 - -44.8°
Reaches altitude 10° 22:05:07 10° 203° (SSW) 2,951 - -45.3°
Maximum altitude 22:10:34 22° 156° (SSE) 2,303 - -46.2°
Drops below altitude 10° 22:16:21 10° 110° (ESE) 3,159 - -47.1°
Sets 22:19:59 0° 96° (E) 4,132 - -47.6°
